EN

Hourly Weather Lugovcy

Today, 26 November, Thursday

Time Temperature Precipitation Wind Pressure Humidity
00:00 +6°C° 0 mm 4 mps 752 mmHg 94%
01:00 +6°C° 0 mm 4 mps 752 mmHg 94%
02:00 +5°C° 0 mm 4 mps 752 mmHg 93%
03:00 +5°C° 0 mm 4 mps 752 mmHg 92%
04:00 +6°C° 0 mm 4 mps 752 mmHg 91%
05:00 +7°C° 0 mm 3 mps 751 mmHg 90%
06:00 +5°C° 0 mm 4 mps 752 mmHg 89%
07:00 +4°C° 0 mm 4 mps 752 mmHg 87%
08:00 +4°C° 0 mm 4 mps 752 mmHg 86%
09:00 +3°C° 0 mm 4 mps 751 mmHg 83%
10:00 +3°C° 0 mm 4 mps 751 mmHg 79%
11:00 +2°C° 0 mm 5 mps 751 mmHg 76%
12:00 +2°C° 0 mm 5 mps 750 mmHg 76%
13:00 +3°C° 0 mm 4 mps 750 mmHg 75%
14:00 +3°C° 0 mm 4 mps 750 mmHg 75%
15:00 +1°C° 0 mm 4 mps 750 mmHg 77%
16:00 0°C° 0 mm 4 mps 749 mmHg 80%
17:00 0°C° 0 mm 4 mps 749 mmHg 82%
18:00 0°C° 0 mm 4 mps 748 mmHg 84%
19:00 0°C° 0 mm 4 mps 748 mmHg 86%
20:00 -1°C° 0 mm 4 mps 748 mmHg 87%
21:00 0°C° 0 mm 4 mps 747 mmHg 87%
22:00 0°C° 0 mm 4 mps 747 mmHg 87%
23:00 0°C° 0 mm 4 mps 747 mmHg 87%

Tomorrow, 27 November, Friday

Time Temperature Precipitation Wind Pressure Humidity
00:00 0°C° 0.1 mm 4 mps 746 mmHg 88%
01:00 0°C° 0.1 mm 4 mps 746 mmHg 89%
02:00 0°C° 0.1 mm 4 mps 746 mmHg 89%
03:00 0°C° 0.8 mm 4 mps 745 mmHg 91%
04:00 +1°C° 0.8 mm 4 mps 745 mmHg 92%
05:00 +1°C° 0.8 mm 4 mps 744 mmHg 93%
06:00 +1°C° 0.4 mm 4 mps 744 mmHg 93%
07:00 +3°C° 0.4 mm 4 mps 744 mmHg 93%
08:00 +3°C° 0.4 mm 4 mps 744 mmHg 93%
09:00 +3°C° 0.7 mm 4 mps 744 mmHg 92%
10:00 +2°C° 0.7 mm 5 mps 744 mmHg 91%
11:00 +2°C° 0.7 mm 5 mps 744 mmHg 90%
12:00 +1°C° 0 mm 5 mps 745 mmHg 86%
13:00 +1°C° 0 mm 5 mps 745 mmHg 83%
14:00 0°C° 0 mm 5 mps 745 mmHg 79%
15:00 0°C° 0.1 mm 5 mps 746 mmHg 83%
16:00 -1°C° 0.1 mm 4 mps 746 mmHg 86%
17:00 -1°C° 0.1 mm 4 mps 747 mmHg 89%
18:00 -1°C° 0.1 mm 4 mps 747 mmHg 91%
19:00 -1°C° 0.1 mm 3 mps 747 mmHg 92%
20:00 -1°C° 0.1 mm 3 mps 748 mmHg 94%
21:00 -1°C° 0.1 mm 3 mps 748 mmHg 94%
22:00 -1°C° 0.1 mm 3 mps 749 mmHg 94%
23:00 -1°C° 0.1 mm 3 mps 749 mmHg 94%

Day after tomorrow, 28 November, Saturday

Time Temperature Precipitation Wind Pressure Humidity
00:00 -1°C° 0 mm 3 mps 750 mmHg 94%
01:00 -2°C° 0 mm 3 mps 750 mmHg 94%
02:00 -2°C° 0 mm 2 mps 750 mmHg 94%
03:00 -2°C° 0.1 mm 3 mps 751 mmHg 94%
04:00 -2°C° 0.1 mm 3 mps 751 mmHg 94%
05:00 -2°C° 0.1 mm 3 mps 751 mmHg 94%
06:00 -2°C° 0.3 mm 3 mps 752 mmHg 95%
07:00 -1°C° 0.3 mm 3 mps 752 mmHg 96%
08:00 -2°C° 0.3 mm 4 mps 752 mmHg 97%
09:00 -1°C° 0.2 mm 4 mps 753 mmHg 97%
10:00 -1°C° 0.2 mm 4 mps 753 mmHg 96%
11:00 -1°C° 0.2 mm 4 mps 753 mmHg 96%
12:00 -1°C° 0.2 mm 4 mps 753 mmHg 96%
13:00 -1°C° 0.2 mm 4 mps 754 mmHg 96%
14:00 -1°C° 0.2 mm 4 mps 754 mmHg 97%
15:00 -1°C° 0.1 mm 4 mps 754 mmHg 96%
16:00 -1°C° 0.1 mm 4 mps 754 mmHg 96%
17:00 -1°C° 0.1 mm 4 mps 754 mmHg 96%
18:00 0°C° 0 mm 3 mps 755 mmHg 96%
19:00 0°C° 0 mm 3 mps 755 mmHg 97%
20:00 0°C° 0 mm 3 mps 755 mmHg 97%
21:00 0°C° 0.1 mm 3 mps 756 mmHg 97%
22:00 0°C° 0.1 mm 3 mps 756 mmHg 97%
23:00 0°C° 0.1 mm 3 mps 756 mmHg 96%

29 November, Sunday

Time Temperature Precipitation Wind Pressure Humidity
00:00 0°C° 0 mm 3 mps 756 mmHg 96%
01:00 0°C° 0 mm 3 mps 756 mmHg 96%
02:00 0°C° 0 mm 3 mps 757 mmHg 96%
03:00 -1°C° 0.1 mm 2 mps 757 mmHg 95%
04:00 -1°C° 0.1 mm 2 mps 757 mmHg 94%
05:00 -1°C° 0.1 mm 2 mps 757 mmHg 93%
06:00 -2°C° 0.1 mm 2 mps 757 mmHg 93%
07:00 -2°C° 0.1 mm 2 mps 757 mmHg 92%
08:00 -2°C° 0.1 mm 2 mps 757 mmHg 91%
09:00 -2°C° 0 mm 3 mps 757 mmHg 87%
10:00 -2°C° 0 mm 3 mps 757 mmHg 83%
11:00 -1°C° 0 mm 3 mps 757 mmHg 79%
12:00 -1°C° 0 mm 3 mps 757 mmHg 78%
13:00 -2°C° 0 mm 4 mps 756 mmHg 78%
14:00 -2°C° 0 mm 4 mps 756 mmHg 77%
15:00 -2°C° 0 mm 4 mps 755 mmHg 82%
16:00 -4°C° 0 mm 5 mps 755 mmHg 87%
17:00 -4°C° 0 mm 5 mps 755 mmHg 92%
18:00 -4°C° 0.2 mm 5 mps 754 mmHg 93%
19:00 -2°C° 0.2 mm 5 mps 754 mmHg 94%
20:00 -2°C° 0.2 mm 5 mps 754 mmHg 95%
21:00 -1°C° 0.3 mm 5 mps 753 mmHg 96%
22:00 -1°C° 0.3 mm 5 mps 753 mmHg 97%
23:00 0°C° 0.3 mm 5 mps 753 mmHg 97%

30 November, Monday

Time Temperature Precipitation Wind Pressure Humidity
00:00 0°C° 0.2 mm 4 mps 753 mmHg 97%
01:00 0°C° 0.2 mm 4 mps 752 mmHg 97%
02:00 +1°C° 0.2 mm 3 mps 752 mmHg 97%
03:00 +1°C° 0.7 mm 3 mps 752 mmHg 98%
04:00 +1°C° 0.7 mm 3 mps 752 mmHg 98%
05:00 +2°C° 0.7 mm 2 mps 751 mmHg 98%
06:00 +1°C° 0.6 mm 2 mps 752 mmHg 98%
07:00 +1°C° 0.6 mm 2 mps 752 mmHg 98%
08:00 +1°C° 0.6 mm 2 mps 752 mmHg 97%
09:00 -1°C° 0.2 mm 3 mps 753 mmHg 96%
10:00 -1°C° 0.2 mm 3 mps 753 mmHg 95%
11:00 -1°C° 0.2 mm 3 mps 753 mmHg 94%
12:00 -1°C° 0.2 mm 3 mps 754 mmHg 94%
13:00 -1°C° 0.2 mm 3 mps 754 mmHg 95%
14:00 0°C° 0.2 mm 3 mps 754 mmHg 96%
15:00 0°C° 0.2 mm 3 mps 755 mmHg 97%
16:00 -1°C° 0.2 mm 4 mps 755 mmHg 97%
17:00 -1°C° 0.2 mm 4 mps 756 mmHg 97%
18:00 -1°C° 0 mm 4 mps 756 mmHg 96%
19:00 -1°C° 0 mm 4 mps 757 mmHg 95%
20:00 -2°C° 0 mm 4 mps 757 mmHg 94%
21:00 -2°C° 0 mm 4 mps 758 mmHg 93%
22:00 -1°C° 0 mm 3 mps 758 mmHg 92%
23:00 -1°C° 0 mm 3 mps 759 mmHg 91%

1 December, Tuesday

Time Temperature Precipitation Wind Pressure Humidity
00:00 -1°C° 0 mm 3 mps 759 mmHg 90%
01:00 -1°C° 0 mm 3 mps 759 mmHg 90%
02:00 -1°C° 0 mm 3 mps 759 mmHg 89%
03:00 -2°C° 0 mm 3 mps 759 mmHg 89%
04:00 -2°C° 0 mm 3 mps 759 mmHg 89%
05:00 -4°C° 0 mm 3 mps 759 mmHg 89%
06:00 -4°C° 0 mm 3 mps 759 mmHg 87%
07:00 -2°C° 0 mm 3 mps 759 mmHg 85%
08:00 -2°C° 0 mm 3 mps 759 mmHg 83%
09:00 -2°C° 0 mm 3 mps 759 mmHg 82%
10:00 -2°C° 0 mm 4 mps 759 mmHg 81%
11:00 -2°C° 0 mm 4 mps 759 mmHg 79%
12:00 -2°C° 0 mm 4 mps 759 mmHg 79%
13:00 -2°C° 0 mm 4 mps 759 mmHg 79%
14:00 -2°C° 0 mm 4 mps 759 mmHg 78%
15:00 -3°C° 0 mm 4 mps 759 mmHg 80%
16:00 -3°C° 0 mm 4 mps 758 mmHg 81%
17:00 -4°C° 0 mm 4 mps 758 mmHg 82%
18:00 -4°C° 0 mm 4 mps 758 mmHg 85%
19:00 -4°C° 0 mm 4 mps 758 mmHg 87%
20:00 -5°C° 0 mm 4 mps 758 mmHg 89%
21:00 -5°C° 0 mm 4 mps 758 mmHg 89%
22:00 -5°C° 0 mm 4 mps 758 mmHg 90%
23:00 -5°C° 0 mm 4 mps 758 mmHg 90%
Show more